TimeEST,TemperatureF,Dew PointF,Humidity,Sea Level PressureIn,VisibilityMPH,Wind Direction,Wind SpeedMPH,Gust SpeedMPH,PrecipitationIn,Events,Conditions,WindDirDegrees,DateUTC
12:00 AM,39.2,35.6,87,29.87,10.0,SW,3.5,-,N/A,,Overcast,220,2008-01-14 05:00:00
12:17 AM,39.2,35.6,87,29.87,7.0,Calm,Calm,-,N/A,,Overcast,0,2008-01-14 05:17:00
12:53 AM,39.0,35.1,86,29.89,10.0,West,3.5,-,N/A,,Overcast,270,2008-01-14 05:53:00
1:44 AM,37.4,33.8,87,29.87,10.0,Variable,3.5,-,0.00,Rain,Light Rain,0,2008-01-14 06:44:00
1:53 AM,37.9,33.1,83,29.89,10.0,West,6.9,-,0.00,,Overcast,260,2008-01-14 06:53:00
2:10 AM,37.4,33.8,87,29.88,10.0,West,4.6,-,0.00,Rain,Light Rain,260,2008-01-14 07:10:00
2:36 AM,37.4,33.8,87,29.89,9.0,Variable,5.8,-,0.01,Rain,Light Rain,0,2008-01-14 07:36:00
2:53 AM,35.1,30.9,85,29.92,3.0,Variable,3.5,-,0.04,Snow,Light Snow,0,2008-01-14 07:53:00
3:00 AM,33.8,30.2,87,29.90,3.0,West,4.6,-,0.00,Snow,Light Snow,270,2008-01-14 08:00:00
3:07 AM,35.6,32.0,87,29.90,5.0,West,3.5,-,0.00,Snow,Light Snow,260,2008-01-14 08:07:00
3:18 AM,35.6,32.0,87,29.90,10.0,Calm,Calm,-,0.00,,Overcast,0,2008-01-14 08:18:00
3:53 AM,35.1,30.9,85,29.92,6.0,WSW,4.6,-,0.01,,Overcast,250,2008-01-14 08:53:00
4:00 AM,33.8,30.2,87,29.90,2.5,West,8.1,-,0.01,Snow,Light Snow,280,2008-01-14 09:00:00
4:08 AM,33.8,30.2,87,29.90,1.0,West,6.9,-,0.02,Snow,Light Snow,280,2008-01-14 09:08:00
4:14 AM,33.8,30.2,87,29.90,2.0,Variable,6.9,-,0.02,Snow,Light Snow,0,2008-01-14 09:14:00
4:19 AM,33.8,30.2,87,29.91,5.0,West,5.8,-,0.02,Snow,Light Snow,260,2008-01-14 09:19:00
4:28 AM,33.8,30.2,87,29.91,3.0,West,5.8,-,0.02,Snow,Light Snow,270,2008-01-14 09:28:00
4:48 AM,33.8,30.2,87,29.91,7.0,Variable,5.8,-,0.03,Snow,Light Snow,0,2008-01-14 09:48:00
4:53 AM,33.1,30.0,89,29.94,9.0,Calm,Calm,-,0.03,,Overcast,0,2008-01-14 09:53:00
5:19 AM,33.8,28.4,81,29.91,10.0,WNW,6.9,-,N/A,,Overcast,290,2008-01-14 10:19:00
5:27 AM,33.8,28.4,81,29.92,4.0,West,8.1,-,0.00,Snow,Light Snow,280,2008-01-14 10:27:00
5:37 AM,32.0,28.4,87,29.92,2.5,West,5.8,-,0.00,Snow,Light Snow,270,2008-01-14 10:37:00
5:46 AM,32.0,28.4,87,29.93,4.0,West,10.4,-,0.00,Snow,Light Snow,260,2008-01-14 10:46:00
5:53 AM,32.0,27.0,82,29.96,6.0,West,11.5,18.4,0.00,,Haze,270,2008-01-14 10:53:00
6:28 AM,30.2,24.8,80,29.94,10.0,Variable,6.9,-,N/A,,Overcast,0,2008-01-14 11:28:00
6:50 AM,30.2,24.8,80,29.95,10.0,West,6.9,-,0.00,Snow,Light Snow,260,2008-01-14 11:50:00
6:53 AM,30.9,25.0,79,29.98,10.0,WSW,5.8,-,0.00,Snow,Light Snow,250,2008-01-14 11:53:00
7:30 AM,30.2,24.8,80,29.95,9.0,WSW,9.2,-,0.00,Snow,Light Snow,250,2008-01-14 12:30:00
7:42 AM,30.2,26.6,86,29.96,8.0,Variable,4.6,-,0.00,,Overcast,0,2008-01-14 12:42:00
7:53 AM,30.9,25.0,79,29.99,7.0,West,4.6,-,0.00,,Overcast,260,2008-01-14 12:53:00
8:53 AM,30.0,25.0,82,30.01,4.0,SW,4.6,-,0.00,Snow,Light Snow,230,2008-01-14 13:53:00
9:03 AM,30.2,24.8,80,29.97,2.0,Variable,5.8,-,0.00,Snow,Light Snow,0,2008-01-14 14:03:00
9:14 AM,30.2,24.8,80,29.97,1.5,SW,8.1,-,0.00,Snow,Light Snow,230,2008-01-14 14:14:00
9:38 AM,28.4,24.8,86,29.98,1.5,SW,4.6,-,0.01,Snow,Light Snow,220,2008-01-14 14:38:00
9:45 AM,28.4,26.6,93,29.98,1.5,Variable,5.8,-,0.01,Snow,Light Snow,0,2008-01-14 14:45:00
9:53 AM,30.0,26.1,85,30.01,1.5,SW,5.8,-,0.01,Snow,Light Snow,220,2008-01-14 14:53:00
10:03 AM,30.2,24.8,80,29.98,2.0,SW,5.8,-,0.00,Snow,Light Snow,220,2008-01-14 15:03:00
10:19 AM,30.2,24.8,80,29.98,3.0,SSW,6.9,-,0.00,Snow,Light Snow,210,2008-01-14 15:19:00
10:33 AM,30.2,24.8,80,29.98,6.0,WSW,6.9,-,0.00,Snow,Light Snow,240,2008-01-14 15:33:00
10:53 AM,30.0,24.1,79,30.00,6.0,WSW,8.1,-,0.00,Snow,Light Snow,240,2008-01-14 15:53:00
11:05 AM,30.2,24.8,80,29.97,1.5,WSW,10.4,17.3,0.00,Snow,Snow,240,2008-01-14 16:05:00
11:29 AM,30.2,24.8,80,29.96,1.5,SW,6.9,-,0.00,Snow,Snow,230,2008-01-14 16:29:00
11:37 AM,30.2,24.8,80,29.96,5.0,SW,8.1,-,0.00,Snow,Snow,230,2008-01-14 16:37:00
11:53 AM,30.9,24.1,76,29.98,9.0,Variable,6.9,-,0.00,Snow,Snow,0,2008-01-14 16:53:00
12:00 PM,30.2,24.8,80,29.95,9.0,Variable,6.9,-,0.00,Snow,Snow,0,2008-01-14 17:00:00
12:36 PM,30.2,23.0,75,29.94,4.0,Variable,5.8,-,0.00,Snow,Snow,0,2008-01-14 17:36:00
12:53 PM,30.0,24.1,79,29.96,6.0,SW,9.2,17.3,0.00,Snow,Light Snow,230,2008-01-14 17:53:00
1:53 PM,30.0,24.1,79,29.96,4.0,SW,8.1,17.3,0.00,Snow,Light Snow,230,2008-01-14 18:53:00
2:15 PM,28.4,23.0,80,29.93,2.0,SW,12.7,19.6,0.00,Snow,Light Snow,230,2008-01-14 19:15:00
2:22 PM,28.4,24.8,86,29.93,1.0,Variable,6.9,19.6,0.00,Snow,Light Snow,0,2008-01-14 19:22:00
2:29 PM,28.4,24.8,86,29.93,0.8,SW,12.7,-,0.00,Snow,Light Snow,230,2008-01-14 19:29:00
2:35 PM,28.4,24.8,86,29.93,1.2,SW,12.7,-,0.00,Snow,Light Snow,230,2008-01-14 19:35:00
2:39 PM,28.4,23.0,80,29.93,4.0,SW,12.7,-,0.00,Snow,Light Snow,230,2008-01-14 19:39:00
2:53 PM,30.0,23.0,75,29.96,7.0,SW,12.7,-,0.00,Snow,Light Snow,230,2008-01-14 19:53:00
3:20 PM,30.2,21.2,69,29.94,5.0,WSW,11.5,-,0.00,Snow,Light Snow,240,2008-01-14 20:20:00
3:44 PM,28.4,21.2,74,29.94,2.0,WSW,11.5,-,0.00,Snow,Light Snow,240,2008-01-14 20:44:00
3:53 PM,28.9,23.0,78,29.98,2.0,WSW,11.5,-,0.00,Snow,Light Snow,240,2008-01-14 20:53:00
4:00 PM,28.4,24.8,86,29.95,1.0,SW,4.6,-,0.00,Snow,Light Snow,220,2008-01-14 21:00:00
4:12 PM,28.4,24.8,86,29.95,2.5,Variable,4.6,-,0.00,Snow,Light Snow,0,2008-01-14 21:12:00
4:53 PM,28.0,23.0,81,30.00,2.0,WSW,12.7,-,0.00,Snow,Light Snow,250,2008-01-14 21:53:00
5:15 PM,28.4,23.0,80,29.97,2.5,WSW,5.8,-,0.00,Snow,Light Snow,240,2008-01-14 22:15:00
5:22 PM,28.4,23.0,80,29.97,7.0,SW,6.9,-,0.00,Snow,Light Snow,230,2008-01-14 22:22:00
5:53 PM,28.0,21.9,78,30.01,9.0,WSW,6.9,-,0.00,Snow,Light Snow,240,2008-01-14 22:53:00
6:14 PM,28.4,23.0,80,29.98,2.5,WSW,5.8,-,0.00,Snow,Light Snow,240,2008-01-14 23:14:00
6:18 PM,28.4,23.0,80,29.98,3.0,WSW,3.5,-,0.00,Snow,Light Snow,240,2008-01-14 23:18:00
6:48 PM,28.4,21.2,74,29.98,9.0,SW,8.1,-,0.00,Snow,Light Snow,230,2008-01-14 23:48:00
6:53 PM,28.0,21.0,75,30.02,9.0,WSW,5.8,-,0.00,Snow,Light Snow,240,2008-01-14 23:53:00
7:09 PM,26.6,21.2,80,29.99,9.0,SW,6.9,-,0.00,Snow,Light Snow,230,2008-01-15 00:09:00
7:53 PM,27.0,21.0,78,30.04,9.0,SW,9.2,-,0.00,Snow,Light Snow,230,2008-01-15 00:53:00
8:53 PM,27.0,21.0,78,30.04,7.0,SW,6.9,-,0.00,Snow,Light Snow,230,2008-01-15 01:53:00
9:53 PM,27.0,19.9,75,30.04,9.0,SW,6.9,-,0.00,,Overcast,230,2008-01-15 02:53:00
10:53 PM,26.1,19.0,75,30.04,10.0,SW,5.8,-,N/A,,Overcast,230,2008-01-15 03:53:00
11:53 PM,26.1,19.0,75,30.02,10.0,SW,5.8,-,N/A,,Overcast,220,2008-01-15 04:53:00